www.pogodaiklimat.ru
ПОГОДА в Норвуде
Время
и дата
03:53 27.09
03:57 27.09
04:09 27.09
04:28 27.09
04:41 27.09
04:44 27.09
04:53 27.09
05:03 27.09
05:12 27.09
05:25 27.09
05:30 27.09
05:35 27.09
05:44 27.09
05:53 27.09
05:57 27.09
06:53 27.09
07:53 27.09
08:53 27.09
09:53 27.09
10:53 27.09
11:53 27.09
12:53 27.09
13:53 27.09
14:53 27.09
15:53 27.09
16:53 27.09
17:53 27.09
18:53 27.09
19:53 27.09
20:53 27.09
21:53 27.09
22:53 27.09
23:53 27.09
00:53 28.09
01:53 28.09
02:53 28.09
03:53 28.09
04:53 28.09
05:53 28.09
06:53 28.09
07:53 28.09
08:53 28.09
09:53 28.09
10:53 28.09
11:53 28.09
12:53 28.09
13:53 28.09
14:53 28.09
Ветер
(напр.,м/с)
Видим. Явления Облачность Т
(С)
Тd
(С)
f
(%)
Тe
(С)
Тes
(С)
Комфортность P
(гПа)
Po
(гПа)
Тmin
(С)
Tmax
(С)
R
(мм)
R24
(мм)
S
(см)
штиль 0 2 км дымка 8/5 90 m
[Ac]
+12.8 +12.2 96 +12 +12 1008.8 1006.9
штиль 0 1 км дымка 8/8 60 m
[Ac]
+12.8 +12.2 96 +12 +12 1006.9
штиль 0 400 м туман 10/8 60 m
[Ac]
+12.2 +11.7 97 +12 +12 1006.9
штиль 0 800 м туман ?/? +12.2 +11.7 97 +12 +12 1006.9
штиль 0 2 км дымка 10/5 60 m
[Ac]
+12.8 +12.2 96 +12 +12 1006.9
штиль 0 5 км дымка 10/5 60 m
[Ac]
+12.2 +11.7 97 +12 +12 1007.2
СЗ 2 13 км 10/2 60 m
[Ac]
+12.8 +12.8 100 +12 +12 1008.8 1006.9
штиль 0 3 км дымка 5/0 3300 m
[Ac]
+12.8 +12.8 100 +12 +12 1006.9
штиль 0 8 км дымка 2/0 3300 m
[Ac]
+13.3 +12.8 97 +13 +13 1006.9
штиль 0 4 км дымка 2/2 60 m
[Ac]
+12.8 +12.2 96 +12 +12 1006.9
штиль 0 2 км дымка ?/? +12.8 +12.2 96 +12 +12 1006.9
штиль 0 800 м туман ?/? +12.8 +12.2 96 +12 +12 1006.9
штиль 0 800 м туман ?/? +12.2 +11.7 97 +12 +12 1007.2
штиль 0 800 м туман ?/? +12.2 +12.2 100 +11 +11 1009.0 1007.2
штиль 0 16 км ясно +12.8 +12.2 96 +12 +12 1007.2
штиль 0 16 км 8/2 60 m
[Ac]
+15.6 +15.0 96 +15 +15 1009.4 1007.6 +11.1 +15.6 3.3
ЮЗ 2 16 км 8/0 3300 m
[Ac]
+18.9 +16.1 84 +21 +21 комфорт 1009.5 1007.6
ЮЗ 2 16 км ясно +18.9 +14.4 75 +21 +24 комфорт 1009.8 1007.9
ЮЗ 3 16 км ясно +20.6 +11.7 57 +23 +28 комфорт 1009.9 1008.2
ЮЗ 6
{9}
16 км ясно +21.7 +12.8 57 +24 +28 комфорт 1009.6 1007.9
Ю 7
{10}
16 км ясно +23.3 +11.1 46 +26 +29 жарко 1009.3 1007.6
Ю 7
{11}
16 км ясно +23.9 +9.4 40 +25 +28 комфорт 1008.6 1006.9 +15.6 +23.9
ЮЗ 6 16 км ясно +23.9 +7.8 36 +24 +28 комфорт 1008.6 1006.9
Ю 6
{10}
16 км ясно +23.3 +5.6 32 +24 +27 комфорт 1008.7 1006.9
З 6
{9}
16 км ясно +22.2 +6.7 37 +23 +25 комфорт 1009.1 1007.2
ЮЗ 3 16 км ясно +21.1 +8.3 44 +22 +24 комфорт 1009.8 1007.9
ЮЗ 2 16 км ясно +18.3 +8.9 54 +19 +19 1010.6 1008.6
штиль 0 16 км ясно +12.8 +9.4 80 +12 +12 1011.2 1009.3 +12.8 +23.9
ЮЗ 3 16 км ясно +15.6 +9.4 67 +15 +15 1011.7 1009.9
Ю 3 16 км ясно +12.2 +8.9 80 +11 +11 1012.3 1010.6
З 2 16 км ясно +11.1 +9.4 89 +10 +10 1012.7 1011.0
штиль 0 16 км ясно +10.0 +8.9 93 +9 +9 1012.9 1011.3
ЮЗ 2 16 км ясно +9.4 +8.3 93 +8 +8 1013.4 1011.6
З 2 16 км 10/0 2100 m
[Ac]
+13.3 +10.0 80 +13 +13 1013.6 1011.6 +8.9 +16.1
ЮЗ 3 16 км 8/0 2250 m
[Ac]
+13.3 +10.0 80 +12 +12 1013.8 1012.0
З 2 16 км 8/0 2400 m
[Ac]
+12.8 +10.0 83 +12 +12 1014.0 1012.3
З 2 16 км ясно +10.0 +8.3 89 +8 +8 1014.4 1012.6
З 2 16 км ясно +11.1 +9.4 89 +10 +10 1014.7 1013.0
штиль 0 16 км ясно +8.3 +7.8 97 +7 +7 1015.0 1013.3
Ю 2 16 км ясно +13.3 +10.0 80 +13 +13 1015.6 1013.7 +7.8 +13.3
З 3 16 км ясно +15.6 +10.6 72 +15 +16 1016.2 1014.3
З 3 16 км ясно +17.8 +11.1 65 +18 +21 1016.8 1015.0
СЗ 4 16 км ясно +19.4 +10.0 55 +20 +24 1016.8 1015.0
З 6
{9}
16 км 2/2 1140 м +20.6 +10.6 53 +22 +25 комфорт 1016.7 1015.0
З 6 16 км 8/8 1380 м +21.7 +10.6 49 +23 +24 комфорт 1017.1 1015.3
З 4 16 км 2/2 1650 м +21.7 +10.6 49 +23 +29 комфорт 1017.2 1015.3 +13.3 +22.8
З 5 16 км 5/5 1440 м +21.1 +10.0 49 +23 +25 комфорт 1017.2 1015.3
З 4 16 км 5/5 1950 м +22.2 +10.6 48 +24 +27 комфорт 1017.6 1015.7
Местоположение метеостанции Norwood Memorial Airport: широта 42.1908 долгота -71.1739 высота над уровнем моря 15 м.
В архиве по умолчанию представлена погода в Норвуде за последние 1-2 суток. Обновление информации о фактической погоде в базе происходит ежечасно! Архивные данные за месяц целиком и за предыдущие месяцы Вы можете получить, выбрав интересующий диапазон дат из раскрывающегося списка и нажав кнопку "Ввод!".
Внимание! Архив погоды МЕТАР в базе сайта по станциям, не включенным в климатический монитор, хранится не более 60 дней. Нет смысла пытаться выбрать более раннюю дату.
*Определитесь, кто Вы:
Внимание! Время в таблицах - местное (без учета летнего времени). Для получения всемирного времени необходимо вычесть поправку, которая равна -5 ч.
Смотрите также архив погоды в соседних городах и на ближайших метеорологических станциях:
Партнеры нашего сайта:      
Пояснения к столбцам:
  • Ветер - указаны скорость ветра в м/с - средняя за 10 мин, порывы в срок и между сроками (в фигурных скобках) и направление, откуда дует ветер: С - северный,
  • СВ - северо-восточный, В - восточный, ЮВ - юго-восточный, Ю - южный, ЮЗ - юго-западный, З - западный, СЗ - северо-западный.
  • Видимость - горизонтальная дальность видимости в метрах или километрах. При видимости от 1 до 10 км при отсутствии осадков обычно наблюдается дымка, при ухудшении видимости до 1 км и менее - туман. В сухую погоду видимость может ухудшаться дымом, пылью или мглою.
  • Явления - указаны атмосферные явления, наблюдавшиеся в срок или в последний час перед сроком; фигурными скобками обозначены явления, наблюдавшиеся между сроками (за 1-3 часа до срока); квадратными скобками обозначены град или гололедные отложения с указанием их диаметра в мм.
  • Облачность - указаны через наклонную черту общая и нижняя облачность в баллах и высота нижней границы облаков в метрах; квадратными скобками обозначены формы облаков: Ci - перистые, Cs - перисто-слоистые, Cc - перисто-кучевые, Ac - высококучевые, As - высокослоистые, Sc - слоисто-кучевые, Ns - слоисто-дождевые, Cu - кучевые, Cb - кучево-дождевые. Подробнее классификацию облаков см. в Атласе облаков (PDF).
  • T - Температура воздуха - температура, измеренная на высоте 2 м над землей.
  • Td - Температура точки росы - температура, при понижении до которой содержащийся в воздухе водяной пар достигнет насыщения.
  • f - Относительная влажность воздуха - влажноcть воздуха, измеренная на высоте 2 м над землей.
  • Te - Эффективная температура - температура, которую ощущает одетый по сезону человек в тени. Характеристика душности погоды. При расчете учитывается влияние влажности воздуха и скорости ветра на теплоощущения человека.
  • Tes - Эффективная температура на солнце - температура, которую ощущает человек, с поправкой на солнечный нагрев. Характеристика знойности погоды. Зависит от высоты солнца над горизонтом, облачности и скорости ветра. Ночью, в пасмурную погоду, а также при ветре 12 м/с и более поправка равна нулю.
  • P - Атмосферное давление - приведенное к уровню моря атмосферное давление.
  • Po - Атмосферное давление - измеренное на уровне метеостанции атмосферное давление.
  • Tmin - Минимальная температура - минимум температуры воздуха на высоте 2 м над землей.
  • Tmax - Максимальная температура - максимум температуры воздуха на высоте 2 м над землей.
  • R - Количество осадков - Количество выпавших осадков за период времени, мм. При наведении курсора мыши на число - период времени, за который выпало указанное количество осадков.
  • R24 - Количество осадков - Количество выпавших осадков за 24 часа, мм.
  • S - Снежный покров - Высота снежного покрова, см. При наведении курсора мыши на число - состояние снежного покрова и степень покрытия местности в баллах.